This demonstration page uses our WeatherBlox Daily Observations layout. Learn more.

Left ArrowRight Arrow

30.21309, -93.2044

Hourly Observations for January 14, 2022

Temp ( °F °C ) Dew Point ( °F °C ) Humidity (%) Winds ( mph kmh ) Pressure ( in mb ) Visibility ( mi km ) Precip ( " mm )
12:15 am 00:15 Clear 50 10.1 45 7.3 83 83 WSW 5 7 30.05 1018 10 16 0.00 0.00
12:35 am 00:35 Clear 50 10.2 45 7.4 83 83 W 3 6 30.04 1017 10 16 0.00 0.00
12:55 am 00:55 Clear 50 10.1 46 7.5 84 84 W 3 6 30.04 1017 10 16 0.00 0.00
1:15 am 01:15 Clear 49 9.5 45 7.4 87 87 W 3 6 30.04 1017 10 16 0.00 0.00
1:35 am 01:35 Clear 48 8.7 44 6.9 89 89 W 3 6 30.04 1017 10 16 0.00 0.00
1:55 am 01:55 Clear 47 8.3 44 6.7 90 90 Calm 30.04 1017 10 16 0.00 0.00
2:15 am 02:15 Clear 46 7.9 44 6.8 93 93 Calm 30.04 1017 10 16 0.00 0.00
2:35 am 02:35 Clear 46 8 44 6.5 90 90 Calm 30.04 1017 10 16 0.00 0.00
2:55 am 02:55 Clear 45 7.1 42 5.7 91 91 Calm 30.03 1017 10 16 0.00 0.00
3:15 am 03:15 Clear with Mist and Fog 45 7.4 44 6.6 95 95 Calm 30.03 1017 5 8 0.00 0.00
3:35 am 03:35 Clear 46 7.9 44 6.8 93 93 Calm 30.02 1017 10 16 0.00 0.00
3:55 am 03:55 Clear 44 6.7 42 5.4 92 92 Calm 30.02 1017 10 16 0.00 0.00
4:15 am 04:15 Clear 46 7.5 43 6.3 92 92 NW 3 6 30.01 1016 10 16 0.00 0.00
4:35 am 04:35 Clear 47 8.4 43 6.3 87 87 NW 3 6 30.01 1016 10 16 0.00 0.00
4:55 am 04:55 Clear 45 7.3 42 5.3 87 87 NNW 3 6 30.01 1016 10 16 0.00 0.00
5:15 am 05:15 Clear 42 5.8 40 4.5 91 91 Calm 30.02 1017 7 11 0.00 0.00
5:35 am 05:35 Clear with Mist and Fog 43 6.1 42 5.3 95 95 Calm 30.02 1017 7 11 0.00 0.00
6:00 am 06:00 Mostly Clear 43 6 43 6 100 100 Calm 30.02 1017 10 16 0.00 0.00
6:55 am 06:55 Mostly Clear 41 5 39 4 93 93 Calm 30.02 1017 10 16 0.00 0.00
7:55 am 07:55 Mostly Sunny 43 6 41 5 93 93 Calm 30.02 1017 10 16 0.00 0.00
8:50 am 08:50 Mostly Sunny 52 11 46 8 82 82 Calm 30.04 1017 10 16 0.00 0.00
9:47 am 09:47 Mostly Sunny 61 16 45 7 55 55 E 5 7 30.05 1018 10 16 0.00 0.00
10:47 am 10:47 Mostly Sunny 64 18 45 7 49 49 SE 7 11 30.04 1017 10 16 0.00 0.00
11:53 am 11:53 Mostly Sunny 70 21 43 6 38 38 S 8 13 30.00 1016 10 16 0.00 0.00
12:50 pm 12:50 Mostly Sunny 73 23 39 4 29 29 S 8 13 29.97 1015 10 16 0.00 0.00
1:45 pm 13:45 Mostly Sunny 73 23 39 4 29 29 S 9 15 29.94 1014 10 16 0.00 0.00
2:50 pm 14:50 Mostly Sunny 73 23 37 3 27 27 SSW 10 17 29.93 1014 10 16 0.00 0.00
3:50 pm 15:50 Mostly Sunny 72 22 37 3 29 29 S 12 19 29.92 1013 10 16 0.00 0.00
4:55 pm 16:55 Mostly Sunny 66 19 37 3 35 35 SSW 10 17 29.90 1013 10 16 0.00 0.00
5:45 pm 17:45 Mostly Clear 54 12 39 4 58 58 SSE 6 9 29.90 1013 10 16 0.00 0.00
6:45 pm 18:45 Mostly Clear 54 12 43 6 67 67 SSE 8 13 29.90 1013 10 16 0.00 0.00
7:50 pm 19:50 Mostly Clear 52 11 45 7 77 77 SSE 9 15 29.89 1012 10 16 0.00 0.00
8:50 pm 20:50 Mostly Clear 52 11 45 7 77 77 SSE 9 15 29.89 1012 10 16 0.00 0.00
9:50 pm 21:50 Mostly Clear 54 12 50 10 88 88 SSE 9 15 29.89 1012 10 16 0.00 0.00
10:15 pm 22:15 Clear 51 10.4 47 8.6 89 89 SSE 7 11 29.89 1012 10 16 0.00 0.00
10:35 pm 22:35 Clear 50 9.9 47 8.1 89 89 SSE 6 9 29.89 1012 10 16 0.00 0.00
10:55 pm 22:55 Clear 49 9.5 46 7.7 89 89 SSE 5 7 29.88 1012 10 16 0.00 0.00
11:15 pm 23:15 Clear 50 10 46 8 88 88 SSE 9 15 29.87 1012 10 16 0.00 0.00
11:35 pm 23:35 Clear 50 10.2 47 8.2 88 88 SSE 6 9 29.87 1012 10 16 0.00 0.00
11:55 pm 23:55 Partly Cloudy 51 10.7 47 8.6 87 87 SSE 7 11 29.87 1012 10 16 0.00 0.00

Powered by AerisWeather